This is the latest recevied weather packets stored in our database for station/object KC9DRE. If no packets are shown the sender has not sent any weather packets the latest 10 day(s).
| Time | Temp. | Humidity | Pressure | Rain* | Wind** | Luminosity | Snow |
|---|---|---|---|---|---|---|---|
| 1777831885 | 18.33° C | 35% | 1018.6 hPa | 0 mm | - | 853 W/m² | - |
| 1777831582 | 17.78° C | 35% | 1018.7 hPa | 0 mm | - | 857 W/m² | - |
| 1777831280 | 17.78° C | 36% | 1018.7 hPa | 0 mm | - | 859 W/m² | - |
| 1777830977 | 17.78° C | 36% | 1019 hPa | 0 mm | - | 863 W/m² | - |
| 1777830674 | 17.78° C | 32% | 1019 hPa | 0 mm | - | 865 W/m² | - |
| 1777830371 | 18.33° C | 36% | 1018.9 hPa | 0 mm | - | 867 W/m² | - |
| 1777830068 | 17.78° C | 40% | 1018.9 hPa | 0 mm | - | 871 W/m² | - |
| 1777829762 | 17.78° C | 35% | 1019.1 hPa | 0 mm | - | 868 W/m² | - |
| 1777829459 | 17.78° C | 38% | 1019.1 hPa | 0 mm | - | 874 W/m² | - |
| 1777829156 | 17.78° C | 36% | 1019.2 hPa | 0 mm | - | 873 W/m² | - |
| 1777828854 | 17.22° C | 39% | 1019.4 hPa | 0 mm | - | 872 W/m² | - |
| 1777828550 | 17.22° C | 34% | 1019.3 hPa | 0 mm | - | 875 W/m² | - |
| 1777828248 | 17.22° C | 40% | 1019.4 hPa | 0 mm | - | 873 W/m² | - |
| 1777827944 | 17.22° C | 38% | 1019.4 hPa | 0 mm | - | 870 W/m² | - |
| 1777827641 | 17.78° C | 34% | 1019.5 hPa | 0 mm | - | 869 W/m² | - |
| 1777827338 | 17.22° C | 33% | 1019.6 hPa | 0 mm | - | 869 W/m² | - |
| 1777827034 | 17.22° C | 37% | 1019.5 hPa | 0 mm | - | 867 W/m² | - |
| 1777826731 | 16.67° C | 37% | 1019.7 hPa | 0 mm | - | 862 W/m² | - |
| 1777826428 | 17.22° C | 35% | 1019.8 hPa | 0 mm | - | 857 W/m² | - |
| 1777826125 | 16.67° C | 37% | 1020 hPa | 0 mm | - | 851 W/m² | - |
| 1777825826 | 16.67° C | 34% | 1020.1 hPa | 0 mm | - | 846 W/m² | - |
| 1777825520 | 17.22° C | 36% | 1020 hPa | 0 mm | - | 840 W/m² | - |
| 1777825218 | 17.22° C | 34% | 1019.9 hPa | 0 mm | - | 833 W/m² | - |
| 1777824914 | 16.67° C | 38% | 1019.9 hPa | 0 mm | - | 827 W/m² | - |
| 1777824610 | 16.11° C | 37% | 1020.1 hPa | 0 mm | - | 822 W/m² | - |
* Rain latest hour (hover to see other rain measurements)
** Current wind speed in m/s (hover to see current wind gust speed)